Simultaneous Nadir Overpasses (SNOs) Predictions

Prediction of SNOs between NOAA-15 and METOP-C Satellite Orbit:

Table of predicted SNOs for the next 14.0 days since TLE Epoch: 7/4/2023
Index Date (NOAA-15) Time (NOAA-15) Lat,Lon (NOAA-15) SZA (NOAA-15 ) Date (METOP-C) Time (METOP-C) Lat,Lon (METOP-C) SZA (METOP-C ) Distance(km) Time Diff (sec)
1 07/17/2023 14:00:16 -81.08,-171.68 118.24 07/17/2023 13:59:08 -81.09,-171.61 118.25 1.61 68
2 07/17/2023 14:50:49 81.08, -4.31 61.77 07/17/2023 14:49:48 81.08, -4.50 61.73 3.35 61
3 07/17/2023 15:41:17 -81.08, 163.02 118.23 07/17/2023 15:40:30 -81.09, 162.88 118.26 2.40 47
4 07/17/2023 16:31:50 81.08, -29.60 61.78 07/17/2023 16:31:09 81.09, -29.64 61.77 1.04 41
5 07/17/2023 17:22:18 -81.09, 137.72 118.22 07/17/2023 17:21:51 -81.09, 137.74 118.23 0.85 27
6 07/17/2023 18:12:51 81.09, -54.89 61.79 07/17/2023 18:12:30 81.10, -54.77 61.80 2.61 21
7 07/17/2023 19:03:19 -81.09, 112.43 118.21 07/17/2023 19:03:13 -81.09, 112.24 118.24 3.26 6
8 07/17/2023 19:53:52 81.09, -80.19 61.80 07/17/2023 19:53:52 81.09, -80.28 61.79 1.67 0
9 07/17/2023 20:44:20 -81.09, 87.13 118.20 07/17/2023 20:44:34 -81.09, 87.10 118.20 0.67 14
10 07/17/2023 21:34:53 81.09,-105.48 61.81 07/17/2023 21:35:13 81.10,-105.41 61.83 1.72 20
11 07/17/2023 22:25:21 -81.09, 61.83 118.20 07/17/2023 22:25:55 -81.10, 61.96 118.16 2.57 34
12 07/17/2023 23:15:54 81.09,-130.78 61.82 07/17/2023 23:16:35 81.09,-130.92 61.82 2.54 41
13 07/18/2023 00:06:22 -81.09, 36.53 118.19 07/18/2023 00:07:17 -81.10, 36.46 118.17 1.33 55
14 07/18/2023 00:56:55 81.09,-156.07 61.83 07/18/2023 00:57:56 81.10,-156.06 61.86 1.03 61



Historial Predications of SNOs between NOAA-15 and METOP-C
